Time,TemperatureF,DewpointF,PressureIn,WindDirection,WindDirectionDegrees,WindSpeedMPH,WindSpeedGustMPH,Humidity,HourlyPrecipIn,Conditions,Clouds,dailyrainin,SoftwareType,DateUTC
2013-03-26 00:03:00,35.0,31.0,-100.00,WNW,300,3.0,8.0,84,-99.99,,,-99.99,,2013-03-26 04:03:00,
2013-03-26 00:12:00,35.0,31.0,-100.00,WNW,295,2.0,6.0,83,-99.99,,,-99.99,,2013-03-26 04:12:00,
2013-03-26 00:23:00,35.0,30.0,-100.00,WNW,295,2.0,6.0,83,-99.99,,,-99.99,,2013-03-26 04:23:00,
2013-03-26 00:33:00,35.0,30.0,-100.00,WNW,295,3.0,6.0,83,-99.99,,,-99.99,,2013-03-26 04:33:00,
2013-03-26 00:43:00,35.0,30.0,-100.00,WNW,295,2.0,6.0,83,-99.99,,,-99.99,,2013-03-26 04:43:00,
2013-03-26 00:52:00,35.0,30.0,-100.00,WNW,295,2.0,6.0,83,-99.99,,,-99.99,,2013-03-26 04:52:00,
2013-03-26 01:02:00,35.0,30.0,-100.00,WNW,295,3.0,6.0,83,-99.99,,,-99.99,,2013-03-26 05:02:00,
2013-03-26 01:12:00,35.0,30.0,-100.00,WNW,295,2.0,6.0,83,-99.99,,,-99.99,,2013-03-26 05:12:00,
2013-03-26 01:22:00,35.0,30.0,-100.00,WNW,295,2.0,4.0,83,-99.99,,,-99.99,,2013-03-26 05:22:00,
2013-03-26 01:32:00,35.0,30.0,-100.00,WNW,295,2.0,4.0,83,-99.99,,,-99.99,,2013-03-26 05:32:00,
2013-03-26 01:42:00,35.0,30.0,-100.00,WNW,295,4.0,7.0,83,-99.99,,,-99.99,,2013-03-26 05:42:00,
2013-03-26 01:52:00,35.0,30.0,-100.00,WNW,295,3.0,7.0,83,-99.99,,,-99.99,,2013-03-26 05:52:00,
2013-03-26 02:02:00,35.0,30.0,-100.00,WNW,295,3.0,6.0,83,-99.99,,,-99.99,,2013-03-26 06:02:00,
2013-03-26 02:12:00,35.0,30.0,-100.00,WNW,295,2.0,6.0,83,-99.99,,,-99.99,,2013-03-26 06:12:00,
2013-03-26 02:22:00,35.0,30.0,-100.00,WNW,295,3.0,8.0,83,-99.99,,,-99.99,,2013-03-26 06:22:00,
2013-03-26 02:32:00,35.0,30.0,-100.00,WNW,295,4.0,9.0,83,-99.99,,,-99.99,,2013-03-26 06:32:00,
2013-03-26 02:42:00,35.0,30.0,-100.00,WNW,290,4.0,9.0,82,-99.99,,,-99.99,,2013-03-26 06:42:00,
2013-03-26 02:52:00,35.0,30.0,-100.00,WNW,290,4.0,7.0,82,-99.99,,,-99.99,,2013-03-26 06:52:00,
2013-03-26 03:02:00,35.0,30.0,-100.00,WNW,290,4.0,11.0,81,-99.99,,,-99.99,,2013-03-26 07:02:00,
2013-03-26 03:12:00,35.0,30.0,-100.00,WNW,285,4.0,7.0,81,-99.99,,,-99.99,,2013-03-26 07:12:00,
2013-03-26 03:22:00,35.0,30.0,-100.00,WNW,290,4.0,9.0,81,-99.99,,,-99.99,,2013-03-26 07:22:00,
2013-03-26 03:33:00,35.0,30.0,-100.00,WNW,290,6.0,9.0,82,-99.99,,,-99.99,,2013-03-26 07:33:00,
2013-03-26 03:42:00,34.0,30.0,-100.00,WNW,290,4.0,9.0,83,-99.99,,,-99.99,,2013-03-26 07:42:00,
2013-03-26 03:52:00,34.0,30.0,-100.00,WNW,295,5.0,9.0,83,-99.99,,,-99.99,,2013-03-26 07:52:00,
2013-03-26 04:02:00,34.0,30.0,-100.00,WNW,295,4.0,9.0,83,-99.99,,,-99.99,,2013-03-26 08:02:00,
2013-03-26 04:12:00,34.0,30.0,-100.00,WNW,295,4.0,9.0,83,-99.99,,,-99.99,,2013-03-26 08:12:00,
2013-03-26 04:22:00,34.0,30.0,-100.00,WNW,300,3.0,7.0,84,-99.99,,,-99.99,,2013-03-26 08:22:00,
2013-03-26 04:32:00,34.0,30.0,-100.00,WNW,300,4.0,9.0,84,-99.99,,,-99.99,,2013-03-26 08:32:00,
2013-03-26 04:42:00,34.0,30.0,-100.00,WNW,300,4.0,9.0,85,-99.99,,,-99.99,,2013-03-26 08:42:00,
2013-03-26 04:52:00,34.0,30.0,-100.00,WNW,300,5.0,10.0,85,-99.99,,,-99.99,,2013-03-26 08:52:00,
2013-03-26 05:02:00,34.0,30.0,-100.00,WNW,300,4.0,9.0,84,-99.99,,,-99.99,,2013-03-26 09:02:00,
2013-03-26 05:12:00,34.0,30.0,-100.00,WNW,300,3.0,9.0,84,-99.99,,,-99.99,,2013-03-26 09:12:00,
2013-03-26 05:22:00,34.0,30.0,-100.00,WNW,300,4.0,7.0,84,-99.99,,,-99.99,,2013-03-26 09:22:00,
2013-03-26 05:33:00,34.0,30.0,-100.00,WNW,300,3.0,9.0,84,-99.99,,,-99.99,,2013-03-26 09:33:00,
2013-03-26 05:43:00,34.0,29.0,-100.00,WNW,300,2.0,8.0,84,-99.99,,,-99.99,,2013-03-26 09:43:00,
2013-03-26 05:52:00,34.0,29.0,-100.00,WNW,295,4.0,9.0,83,-99.99,,,-99.99,,2013-03-26 09:52:00,
2013-03-26 06:03:00,34.0,29.0,-100.00,WNW,295,4.0,7.0,83,-99.99,,,-99.99,,2013-03-26 10:03:00,
2013-03-26 06:12:00,34.0,29.0,-100.00,WNW,295,4.0,6.0,83,-99.99,,,-99.99,,2013-03-26 10:12:00,
2013-03-26 06:22:00,34.0,29.0,-100.00,WNW,295,2.0,6.0,83,-99.99,,,-99.99,,2013-03-26 10:22:00,
2013-03-26 06:32:00,34.0,29.0,-100.00,WNW,295,2.0,6.0,83,-99.99,,,-99.99,,2013-03-26 10:32:00,
2013-03-26 06:42:00,34.0,29.0,-100.00,WNW,295,3.0,8.0,83,-99.99,,,-99.99,,2013-03-26 10:42:00,
2013-03-26 06:52:00,34.0,29.0,-100.00,WNW,295,2.0,6.0,83,-99.99,,,-99.99,,2013-03-26 10:52:00,
2013-03-26 07:03:00,34.0,29.0,-100.00,WNW,290,4.0,7.0,82,-99.99,,,-99.99,,2013-03-26 11:03:00,
2013-03-26 07:12:00,34.0,29.0,-100.00,WNW,290,4.0,7.0,82,-99.99,,,-99.99,,2013-03-26 11:12:00,
2013-03-26 07:22:00,34.0,29.0,-100.00,WNW,290,4.0,8.0,82,-99.99,,,-99.99,,2013-03-26 11:22:00,
2013-03-26 07:32:00,34.0,29.0,-100.00,WNW,290,3.0,7.0,82,-99.99,,,-99.99,,2013-03-26 11:32:00,
2013-03-26 07:42:00,34.0,29.0,-100.00,WNW,290,2.0,6.0,82,-99.99,,,-99.99,,2013-03-26 11:42:00,
2013-03-26 07:52:00,33.0,29.0,-100.00,WNW,290,4.0,7.0,82,-99.99,,,-99.99,,2013-03-26 11:52:00,
2013-03-26 08:03:00,33.0,29.0,-100.00,WNW,290,3.0,7.0,82,-99.99,,,-99.99,,2013-03-26 12:03:00,
2013-03-26 08:12:00,33.0,29.0,-100.00,WNW,290,3.0,6.0,82,-99.99,,,-99.99,,2013-03-26 12:12:00,
2013-03-26 08:22:00,34.0,29.0,-100.00,WNW,290,4.0,7.0,82,-99.99,,,-99.99,,2013-03-26 12:22:00,
2013-03-26 08:32:00,34.0,29.0,-100.00,WNW,290,3.0,8.0,82,-99.99,,,-99.99,,2013-03-26 12:32:00,
2013-03-26 08:42:00,34.0,29.0,-100.00,WNW,290,3.0,7.0,82,-99.99,,,-99.99,,2013-03-26 12:42:00,
2013-03-26 08:52:00,34.0,29.0,-100.00,WNW,290,4.0,7.0,82,-99.99,,,-99.99,,2013-03-26 12:52:00,
2013-03-26 09:03:00,34.0,29.0,-100.00,WNW,290,4.0,7.0,81,-99.99,,,-99.99,,2013-03-26 13:03:00,
2013-03-26 09:12:00,34.0,29.0,-100.00,WNW,285,4.0,7.0,81,-99.99,,,-99.99,,2013-03-26 13:12:00,
2013-03-26 09:22:00,35.0,29.0,-100.00,West,275,4.0,8.0,79,-99.99,,,-99.99,,2013-03-26 13:22:00,
2013-03-26 09:32:00,35.0,29.0,-100.00,West,275,4.0,9.0,78,-99.99,,,-99.99,,2013-03-26 13:32:00,
2013-03-26 09:42:00,36.0,29.0,-100.00,West,270,3.0,9.0,78,-99.99,,,-99.99,,2013-03-26 13:42:00,
2013-03-26 09:52:00,36.0,29.0,-100.00,West,265,4.0,10.0,76,-99.99,,,-99.99,,2013-03-26 13:52:00,
2013-03-26 10:02:00,37.0,29.0,-100.00,West,260,6.0,9.0,74,-99.99,,,-99.99,,2013-03-26 14:02:00,
2013-03-26 10:11:00,37.0,29.0,-100.00,WSW,255,4.0,8.0,73,-99.99,,,-99.99,,2013-03-26 14:11:00,
2013-03-26 10:22:00,37.0,29.0,-100.00,WSW,250,4.0,11.0,72,-99.99,,,-99.99,,2013-03-26 14:22:00,
2013-03-26 10:33:00,38.0,29.0,-100.00,WSW,245,4.0,9.0,70,-99.99,,,-99.99,,2013-03-26 14:33:00,
2013-03-26 10:42:00,38.0,29.0,-100.00,WSW,245,4.0,9.0,70,-99.99,,,-99.99,,2013-03-26 14:42:00,
2013-03-26 10:52:00,38.0,29.0,-100.00,SW,235,6.0,11.0,68,-99.99,,,-99.99,,2013-03-26 14:52:00,
2013-03-26 11:02:00,39.0,29.0,-100.00,SW,230,6.0,10.0,67,-99.99,,,-99.99,,2013-03-26 15:02:00,
2013-03-26 11:12:00,39.0,29.0,-100.00,SW,230,7.0,13.0,66,-99.99,,,-99.99,,2013-03-26 15:12:00,
2013-03-26 11:22:00,40.0,30.0,-100.00,SW,225,4.0,10.0,66,-99.99,,,-99.99,,2013-03-26 15:22:00,
2013-03-26 11:33:00,40.0,30.0,-100.00,SW,220,6.0,12.0,65,-99.99,,,-99.99,,2013-03-26 15:33:00,
2013-03-26 11:43:00,41.0,30.0,-100.00,SW,220,6.0,11.0,64,-99.99,,,-99.99,,2013-03-26 15:43:00,
2013-03-26 11:52:00,41.0,29.0,-100.00,SSW,210,6.0,13.0,63,-99.99,,,-99.99,,2013-03-26 15:52:00,
2013-03-26 12:03:00,41.0,29.0,-100.00,SSW,210,7.0,12.0,62,-99.99,,,-99.99,,2013-03-26 16:03:00,
2013-03-26 12:13:00,42.0,29.0,-100.00,SSW,200,9.0,12.0,60,-99.99,,,-99.99,,2013-03-26 16:13:00,
2013-03-26 12:22:00,42.0,28.0,-100.00,SSW,195,7.0,17.0,58,-99.99,,,-99.99,,2013-03-26 16:22:00,
2013-03-26 12:32:00,42.0,29.0,-100.00,South,190,5.0,13.0,57,-99.99,,,-99.99,,2013-03-26 16:32:00,
2013-03-26 12:42:00,42.0,28.0,-100.00,South,190,6.0,12.0,57,-99.99,,,-99.99,,2013-03-26 16:42:00,
2013-03-26 12:53:00,44.0,29.0,-100.00,South,180,4.0,12.0,55,-99.99,,,-99.99,,2013-03-26 16:53:00,
2013-03-26 13:03:00,42.0,28.0,-100.00,South,180,4.0,11.0,55,-99.99,,,-99.99,,2013-03-26 17:03:00,
2013-03-26 13:12:00,43.0,27.0,-100.00,South,175,3.0,9.0,53,-99.99,,,-99.99,,2013-03-26 17:12:00,
2013-03-26 13:23:00,42.0,26.0,-100.00,SSE,165,7.0,11.0,51,-99.99,,,-99.99,,2013-03-26 17:23:00,
2013-03-26 13:32:00,42.0,25.0,-100.00,South,170,6.0,10.0,51,-99.99,,,-99.99,,2013-03-26 17:32:00,
2013-03-26 13:42:00,42.0,25.0,-100.00,South,170,6.0,11.0,51,-99.99,,,-99.99,,2013-03-26 17:42:00,
2013-03-26 13:52:00,42.0,26.0,-100.00,South,170,2.0,11.0,52,-99.99,,,-99.99,,2013-03-26 17:52:00,
2013-03-26 14:02:00,40.0,27.0,-100.00,South,190,6.0,11.0,57,-99.99,,,-99.99,,2013-03-26 18:02:00,
2013-03-26 14:12:00,39.0,28.0,-100.00,SSW,210,6.0,9.0,63,-99.99,,,-99.99,,2013-03-26 18:12:00,
2013-03-26 14:23:00,39.0,28.0,-100.00,SSW,210,6.0,9.0,63,-99.99,,,-99.99,,2013-03-26 18:23:00,
2013-03-26 14:34:00,39.0,29.0,-100.00,SW,230,2.0,9.0,67,-99.99,,,-99.99,,2013-03-26 18:34:00,
2013-03-26 14:42:00,39.0,29.0,-100.00,SW,230,3.0,7.0,66,-99.99,,,-99.99,,2013-03-26 18:42:00,
2013-03-26 14:52:00,39.0,29.0,-100.00,SW,230,3.0,7.0,66,-99.99,,,-99.99,,2013-03-26 18:52:00,
2013-03-26 15:03:00,40.0,29.0,-100.00,SW,225,6.0,9.0,65,-99.99,,,-99.99,,2013-03-26 19:03:00,
2013-03-26 15:12:00,40.0,29.0,-100.00,SSW,210,2.0,7.0,63,-99.99,,,-99.99,,2013-03-26 19:12:00,
2013-03-26 15:22:00,41.0,28.0,-100.00,SSW,200,4.0,9.0,59,-99.99,,,-99.99,,2013-03-26 19:22:00,
2013-03-26 15:32:00,41.0,28.0,-100.00,South,190,2.0,9.0,58,-99.99,,,-99.99,,2013-03-26 19:32:00,
2013-03-26 15:42:00,41.0,29.0,-100.00,SSW,205,0.0,6.0,61,-99.99,,,-99.99,,2013-03-26 19:42:00,
2013-03-26 15:53:00,41.0,29.0,-100.00,SSW,210,0.0,4.0,62,-99.99,,,-99.99,,2013-03-26 19:53:00,
2013-03-26 16:02:00,42.0,29.0,-100.00,SSW,205,1.0,5.0,60,-99.99,,,-99.99,,2013-03-26 20:02:00,
2013-03-26 16:13:00,42.0,27.0,-100.00,South,185,2.0,4.0,55,-99.99,,,-99.99,,2013-03-26 20:13:00,
2013-03-26 16:22:00,43.0,27.0,-100.00,South,170,3.0,7.0,52,-99.99,,,-99.99,,2013-03-26 20:22:00,
2013-03-26 16:32:00,43.0,26.0,-100.00,SSE,165,3.0,7.0,50,-99.99,,,-99.99,,2013-03-26 20:32:00,
2013-03-26 16:42:00,43.0,27.0,-100.00,South,175,2.0,6.0,53,-99.99,,,-99.99,,2013-03-26 20:42:00,
2013-03-26 16:52:00,42.0,28.0,-100.00,South,185,6.0,11.0,57,-99.99,,,-99.99,,2013-03-26 20:52:00,
2013-03-26 17:02:00,39.0,28.0,-100.00,SW,215,3.0,12.0,65,-99.99,,,-99.99,,2013-03-26 21:02:00,
2013-03-26 17:12:00,39.0,29.0,-100.00,SW,235,4.0,8.0,68,-99.99,,,-99.99,,2013-03-26 21:12:00,
2013-03-26 17:22:00,39.0,30.0,-100.00,SW,235,4.0,6.0,68,-99.99,,,-99.99,,2013-03-26 21:22:00,
2013-03-26 17:33:00,40.0,29.0,-100.00,SW,225,4.0,10.0,65,-99.99,,,-99.99,,2013-03-26 21:33:00,
2013-03-26 17:43:00,40.0,29.0,-100.00,SSW,210,4.0,12.0,63,-99.99,,,-99.99,,2013-03-26 21:43:00,
2013-03-26 17:52:00,40.0,29.0,-100.00,SSW,210,1.0,6.0,63,-99.99,,,-99.99,,2013-03-26 21:52:00,
2013-03-26 18:02:00,40.0,29.0,-100.00,SW,215,2.0,7.0,64,-99.99,,,-99.99,,2013-03-26 22:02:00,
2013-03-26 18:12:00,40.0,29.0,-100.00,SW,220,1.0,4.0,65,-99.99,,,-99.99,,2013-03-26 22:12:00,
2013-03-26 18:22:00,40.0,29.0,-100.00,SW,225,1.0,6.0,66,-99.99,,,-99.99,,2013-03-26 22:22:00,
2013-03-26 18:33:00,39.0,29.0,-100.00,SW,220,2.0,7.0,65,-99.99,,,-99.99,,2013-03-26 22:33:00,
2013-03-26 18:42:00,40.0,28.0,-100.00,SSW,210,4.0,7.0,63,-99.99,,,-99.99,,2013-03-26 22:42:00,
2013-03-26 18:52:00,40.0,28.0,-100.00,SSW,210,2.0,9.0,61,-99.99,,,-99.99,,2013-03-26 22:52:00,
2013-03-26 19:01:00,39.0,27.0,-100.00,SSW,205,4.0,10.0,61,-99.99,,,-99.99,,2013-03-26 23:01:00,
2013-03-26 19:10:00,39.0,27.0,-100.00,SSW,205,4.0,10.0,61,-99.99,,,-99.99,,2013-03-26 23:10:00,
2013-03-26 19:22:00,39.0,27.0,-100.00,SSW,210,4.0,9.0,63,-99.99,,,-99.99,,2013-03-26 23:22:00,
2013-03-26 19:32:00,39.0,28.0,-100.00,SW,215,4.0,9.0,63,-99.99,,,-99.99,,2013-03-26 23:32:00,
2013-03-26 19:42:00,39.0,28.0,-100.00,SW,220,3.0,7.0,64,-99.99,,,-99.99,,2013-03-26 23:42:00,
2013-03-26 19:53:00,38.0,28.0,-100.00,SW,225,2.0,7.0,66,-99.99,,,-99.99,,2013-03-26 23:53:00,
2013-03-26 20:02:00,38.0,28.0,-100.00,SW,225,2.0,7.0,66,-99.99,,,-99.99,,2013-03-27 00:02:00,
2013-03-26 20:12:00,38.0,28.0,-100.00,SW,225,4.0,11.0,65,-99.99,,,-99.99,,2013-03-27 00:12:00,
2013-03-26 20:22:00,38.0,27.0,-100.00,SW,225,5.0,9.0,65,-99.99,,,-99.99,,2013-03-27 00:22:00,
2013-03-26 20:32:00,37.0,27.0,-100.00,SW,225,4.0,9.0,66,-99.99,,,-99.99,,2013-03-27 00:32:00,
2013-03-26 20:42:00,37.0,27.0,-100.00,SW,230,4.0,12.0,66,-99.99,,,-99.99,,2013-03-27 00:42:00,
2013-03-26 20:52:00,37.0,27.0,-100.00,SW,230,4.0,8.0,67,-99.99,,,-99.99,,2013-03-27 00:52:00,
2013-03-26 21:02:00,37.0,27.0,-100.00,SW,230,5.0,13.0,67,-99.99,,,-99.99,,2013-03-27 01:02:00,
2013-03-26 21:12:00,37.0,27.0,-100.00,SW,230,3.0,11.0,68,-99.99,,,-99.99,,2013-03-27 01:12:00,
2013-03-26 21:23:00,36.0,27.0,-100.00,SW,235,3.0,10.0,68,-99.99,,,-99.99,,2013-03-27 01:23:00,
2013-03-26 21:33:00,36.0,28.0,-100.00,WSW,240,3.0,7.0,70,-99.99,,,-99.99,,2013-03-27 01:33:00,
2013-03-26 21:42:00,36.0,28.0,-100.00,WSW,245,2.0,7.0,70,-99.99,,,-99.99,,2013-03-27 01:42:00,
2013-03-26 21:52:00,36.0,28.0,-100.00,WSW,245,4.0,7.0,72,-99.99,,,-99.99,,2013-03-27 01:52:00,
2013-03-26 22:03:00,36.0,28.0,-100.00,WSW,250,3.0,9.0,72,-99.99,,,-99.99,,2013-03-27 02:03:00,
2013-03-26 22:12:00,36.0,29.0,-100.00,WSW,255,4.0,9.0,73,-99.99,,,-99.99,,2013-03-27 02:12:00,
2013-03-26 22:22:00,36.0,29.0,-100.00,WSW,255,3.0,7.0,74,-99.99,,,-99.99,,2013-03-27 02:22:00,
2013-03-26 22:32:00,36.0,29.0,-100.00,WSW,255,4.0,7.0,74,-99.99,,,-99.99,,2013-03-27 02:32:00,
2013-03-26 22:42:00,36.0,29.0,-100.00,WSW,255,2.0,7.0,74,-99.99,,,-99.99,,2013-03-27 02:42:00,
2013-03-26 22:52:00,36.0,28.0,-100.00,WSW,255,5.0,9.0,74,-99.99,,,-99.99,,2013-03-27 02:52:00,
2013-03-26 23:02:00,36.0,29.0,-100.00,West,260,3.0,11.0,74,-99.99,,,-99.99,,2013-03-27 03:02:00,
2013-03-26 23:12:00,36.0,29.0,-100.00,West,260,3.0,7.0,75,-99.99,,,-99.99,,2013-03-27 03:12:00,
2013-03-26 23:22:00,36.0,29.0,-100.00,West,260,4.0,14.0,75,-99.99,,,-99.99,,2013-03-27 03:22:00,
2013-03-26 23:33:00,36.0,29.0,-100.00,West,265,4.0,11.0,76,-99.99,,,-99.99,,2013-03-27 03:33:00,
2013-03-26 23:42:00,35.0,29.0,-100.00,West,265,5.0,10.0,76,-99.99,,,-99.99,,2013-03-27 03:42:00,
2013-03-26 23:52:00,35.0,29.0,-100.00,West,265,3.0,9.0,76,-99.99,,,-99.99,,2013-03-27 03:52:00,